Fowler, IL

12:25 AM CST on February 08, 2016 (GMT -0600)
Quincy Regional-Baldwin

Weather History for KUIN - January, 2013

Change the Weather History Date:

Friday, January 11, 2013

  Actual Average Record
Temperature  
Mean Temperature 51 °F 26 °F  
Max Temperature 59 °F 34 °F 59 °F (2013)
Min Temperature 43 °F 18 °F -15 °F (1977)
Degree Days  
Heating Degree Days 14 39  
Month to date heating degree days 381 425  
Since 1 July heating degree days 2429 2616  
Cooling Degree Days 0 0  
Month to date cooling degree days 0 0  
Year to date cooling degree days 0 0  
Moisture  
Dew Point 45 °F    
Average Humidity 81    
Maximum Humidity 100    
Minimum Humidity 62    
Precipitation  
Precipitation T in 0.04 in 1.06 in (1905)
Month to date precipitation 0.37 0.58  
Year to date precipitation 0.37 0.58  
Sea Level Pressure  
Sea Level Pressure 29.74 in    
Wind  
Wind Speed 14 mph (South)    
Max Wind Speed 23 mph    
Max Gust Speed 32 mph    
Visibility 6 miles    
Events Fog    
T = Trace of Precipitation, MM = Missing Value Source: NWS Daily Summary

Daily Weather History Graph

Daily Weather History Graph

Search for Another Location

Airport or City:

Trip Planner

Search our weather history database for the weather conditions in past years. The results will help you decide how hot, cold, wet, or windy it might be!

Date:

Astronomy

Jan. 11, 2013 Rise Set
Actual Time 7:25 AM CST 5:00 PM CST
Civil Twilight 6:55 AM CST 5:30 PM CST
Nautical Twilight 6:22 AM CST 6:03 PM CST
Astronomical Twilight 5:49 AM CST 6:36 PM CST
Moon 6:59 AM CST (1/11) 5:18 PM CST (1/11)
Length of Visible Light 10h 34m
Length of Day
9h 34m
Waning Crescent, 0% of the Moon is Illuminated
Jan 11
Waning Crescent
Jan 11
New
Jan 18
First Quarter
Jan 26
Full
Feb 3
Last Quarter

Hourly Weather History & Observations

Time (CST) Temp. Windchill Dew Point Humidity Pressure Visibility Wind Dir Wind Speed Gust Speed Precip Events Conditions
12:05 AM 44.6 °F 41.4 °F 44.6 °F 100% 29.75 in 2.5 mi SE 5.8 mph - 0.00 in   Overcast
12:07 AM 42.8 °F 38.6 °F 42.8 °F 100% 29.74 in 1.8 mi ESE 6.9 mph - 0.00 in   Mostly Cloudy
12:14 AM 44.6 °F 42.2 °F 44.6 °F 100% 29.74 in 0.8 mi SE 4.6 mph - 0.00 in   Overcast
12:33 AM 44.6 °F 40.2 °F 44.6 °F 100% 29.73 in 0.8 mi SE 8.1 mph - 0.00 in   Mist
12:54 AM 45.0 °F 43.5 °F 44.1 °F 97% 29.75 in 0.5 mi South 3.5 mph - 0.00 in Fog Fog
1:07 AM 46.4 °F 43.5 °F 44.6 °F 93% 29.74 in 0.2 mi SSE 5.8 mph - N/A Fog Fog
1:26 AM 46.4 °F 42.9 °F 44.6 °F 93% 29.75 in 0.5 mi South 6.9 mph - N/A Fog Fog
1:36 AM 46.4 °F 41.9 °F 44.6 °F 93% 29.74 in 0.2 mi SSW 9.2 mph - N/A Fog Fog
1:54 AM 46.9 °F - 46.0 °F 97% 29.76 in 0.2 mi SSW 11.5 mph - N/A Fog Fog
2:22 AM 46.4 °F 41.5 °F 46.4 °F 100% 29.76 in 0.5 mi SW 10.4 mph - N/A Fog Fog
2:48 AM 46.4 °F 41.5 °F 44.6 °F 93% 29.76 in 2.0 mi SSW 10.4 mph - N/A   Overcast
2:49 AM 46.4 °F 41.5 °F 44.6 °F 93% 29.76 in 2.5 mi SSW 10.4 mph - N/A   Overcast
2:56 AM 46.4 °F 41.9 °F 44.6 °F 93% 29.76 in 5.0 mi SSW 9.2 mph - N/A   Overcast
3:05 AM 46.4 °F 41.5 °F 44.6 °F 93% 29.77 in 6.0 mi SW 10.4 mph - N/A   Overcast
3:46 AM 46.4 °F 41.1 °F 44.6 °F 93% 29.76 in 8.0 mi SW 11.5 mph - N/A   Overcast
3:54 AM 46.0 °F 40.6 °F 45.0 °F 96% 29.77 in 7.0 mi SW 11.5 mph - N/A   Overcast
4:54 AM 46.9 °F - 46.0 °F 97% 29.76 in 5.0 mi SW 10.4 mph - N/A   Overcast
5:45 AM 46.4 °F 41.1 °F 46.4 °F 100% 29.75 in 5.0 mi SW 11.5 mph - N/A   Overcast
5:54 AM 46.9 °F - 45.0 °F 93% 29.77 in 6.0 mi SW 10.4 mph - N/A   Overcast
6:54 AM 46.9 °F - 45.0 °F 93% 29.80 in 5.0 mi SW 12.7 mph - N/A   Overcast
7:24 AM 46.4 °F 41.9 °F 44.6 °F 93% 29.79 in 6.0 mi SSW 9.2 mph - N/A   Overcast
7:54 AM 46.9 °F - 46.0 °F 97% 29.79 in 5.0 mi South 8.1 mph - N/A   Overcast
8:51 AM 48.2 °F - 46.4 °F 93% 29.79 in 7.0 mi South 12.7 mph - N/A   Overcast
8:54 AM 48.0 °F - 46.0 °F 93% 29.80 in 7.0 mi South 13.8 mph - N/A   Overcast
9:11 AM 48.2 °F - 46.4 °F 93% 29.78 in 8.0 mi South 11.5 mph - N/A   Scattered Clouds
9:54 AM 50.0 °F - 46.9 °F 89% 29.79 in 9.0 mi South 13.8 mph - N/A   Scattered Clouds
10:54 AM 51.1 °F - 46.9 °F 86% 29.78 in 10.0 mi South 13.8 mph 19.6 mph N/A   Clear
11:54 AM 55.0 °F - 48.0 °F 77% 29.74 in 10.0 mi South 16.1 mph 27.6 mph N/A   Clear
12:54 PM 57.0 °F - 48.0 °F 72% 29.69 in 10.0 mi South 13.8 mph 23.0 mph N/A   Clear
1:54 PM 57.2 °F - 48.2 °F 72% 29.69 in 10.0 mi South 15.0 mph 24.2 mph N/A   Clear
2:54 PM 57.9 °F - 46.9 °F 67% 29.68 in 10.0 mi South 16.1 mph 24.2 mph N/A   Clear
3:54 PM 57.9 °F - 46.9 °F 67% 29.67 in 10.0 mi South 15.0 mph 21.9 mph N/A   Clear
4:54 PM 57.9 °F - 46.0 °F 65% 29.67 in 10.0 mi South 13.8 mph - N/A   Clear
5:54 PM 57.0 °F - 45.0 °F 64% 29.68 in 10.0 mi South 13.8 mph - N/A   Clear
6:54 PM 57.9 °F - 45.0 °F 62% 29.67 in 10.0 mi South 15.0 mph 25.3 mph N/A   Clear
7:54 PM 57.0 °F - 45.0 °F 64% 29.68 in 10.0 mi South 16.1 mph 32.2 mph N/A   Clear
8:54 PM 55.9 °F - 45.0 °F 67% 29.69 in 10.0 mi South 19.6 mph 26.5 mph N/A   Clear
9:54 PM 55.0 °F - 45.0 °F 69% 29.70 in 10.0 mi South 18.4 mph 25.3 mph N/A   Clear
10:54 PM 55.0 °F - 45.0 °F 69% 29.71 in 10.0 mi SSW 17.3 mph - N/A   Clear
11:54 PM 55.0 °F - 45.0 °F 69% 29.71 in 10.0 mi SSW 18.4 mph 25.3 mph N/A   Clear